| time (UTC) | temp F | wind direction | speed knots | gust knots | rain 1hr in | rain 24hr in | rain mn in | humidity % | barometer mb |
| 20260509164503 | 70 | 75 | 5.2 | 7.0 | 0.00 | 0.00 | 0.00 | 41 | 1014.1 |
| 20260509163603 | 70 | 17 | 4.3 | 7.0 | 0.00 | 0.00 | 0.00 | 42 | 1014.3 |
| 20260509162703 | 69 | 32 | 6.1 | 9.6 | 0.00 | 0.00 | 0.00 | 42 | 1013.9 |
| 20260509161803 | 70 | 88 | 4.3 | 7.0 | 0.00 | 0.00 | 0.00 | 41 | 1014.2 |
| 20260509160903 | 69 | 57 | 5.2 | 7.0 | 0.00 | 0.00 | 0.00 | 42 | 1014.4 |
| 20260509160003 | 68 | 69 | 6.1 | 9.6 | 0.00 | 0.00 | 0.00 | 42 | 1014.4 |
| 20260509155403 | 69 | 79 | 5.2 | 9.6 | 0.00 | 0.00 | 0.00 | 41 | 1014.3 |
| 20260509154503 | 69 | 90 | 6.1 | 7.8 | 0.00 | 0.00 | 0.00 | 43 | 1014.1 |
| 20260509153603 | 69 | 83 | 6.1 | 7.0 | 0.00 | 0.00 | 0.00 | 41 | 1014.2 |
| 20260509152703 | 70 | 91 | 4.3 | 7.0 | 0.00 | 0.00 | 0.00 | 42 | 1014.4 |
| 20260509151803 | 70 | 56 | 5.2 | 9.6 | 0.00 | 0.00 | 0.00 | 42 | 1014.5 |
| 20260509150903 | 72 | 47 | 6.1 | 9.6 | 0.00 | 0.00 | 0.00 | 41 | 1014.3 |
| 20260509150003 | 73 | 43 | 4.3 | 6.1 | 0.00 | 0.00 | 0.00 | 39 | 1014.5 |
| 20260509145403 | 72 | 47 | 6.1 | 9.6 | 0.00 | 0.00 | 0.00 | 42 | 1014.6 |
| 20260509144503 | 72 | 47 | 6.1 | 9.6 | 0.00 | 0.00 | 0.00 | 41 | 1014.5 |
| 20260509143603 | 72 | 105 | 4.3 | 7.8 | 0.00 | 0.00 | 0.00 | 42 | 1014.7 |
| 20260509142703 | 72 | 65 | 4.3 | 7.8 | 0.00 | 0.00 | 0.00 | 38 | 1014.6 |
| 20260509141803 | 72 | 43 | 6.1 | 9.6 | 0.00 | 0.00 | 0.00 | 41 | 1014.9 |
| 20260509140903 | 72 | 11 | 5.2 | 9.6 | 0.00 | 0.00 | 0.00 | 43 | 1014.7 |
| 20260509140213 | 71 | 44 | 5.2 | 7.0 | 0.00 | 0.00 | 0.00 | 44 | 1014.9 |
| 20260509135614 | 72 | 31 | 5.2 | 8.7 | 0.00 | 0.00 | 0.00 | 43 | 1015.0 |
| 20260509134714 | 72 | 34 | 5.2 | 8.7 | 0.00 | 0.00 | 0.00 | 43 | 1014.7 |
| 20260509133603 | 72 | 97 | 6.1 | 8.7 | 0.00 | 0.00 | 0.00 | 44 | 1014.7 |
| 20260509132703 | 71 | 51 | 5.2 | 7.0 | 0.00 | 0.00 | 0.00 | 48 | 1014.7 |
| 20260509132014 | 69 | 103 | 4.3 | 7.0 | 0.00 | 0.00 | 0.00 | 48 | 1014.8 |
| 20260509130903 | 69 | 48 | 4.3 | 7.0 | 0.00 | 0.00 | 0.00 | 47 | 1014.9 |
| 20260509130003 | 70 | 58 | 4.3 | 7.8 | 0.00 | 0.00 | 0.00 | 47 | 1015.0 |
| 20260509125403 | 70 | 25 | 6.1 | 9.6 | 0.00 | 0.00 | 0.00 | 49 | 1014.9 |
| 20260509124503 | 71 | 359 | 5.2 | 9.6 | 0.00 | 0.00 | 0.00 | 46 | 1014.8 |
| 20260509123603 | 71 | 45 | 5.2 | 8.7 | 0.00 | 0.00 | 0.00 | 50 | 1014.9 |
| 20260509122703 | 70 | 18 | 4.3 | 5.2 | 0.00 | 0.00 | 0.00 | 53 | 1014.9 |
| 20260509121803 | 67 | 47 | 4.3 | 6.1 | 0.00 | 0.00 | 0.00 | 53 | 1015.2 |
| 20260509120903 | 67 | 60 | 3.5 | 5.2 | 0.00 | 0.00 | 0.00 | 54 | 1015.3 |
| 20260509120003 | 67 | 52 | 3.5 | 6.1 | 0.00 | 0.00 | 0.00 | 52 | 1015.4 |
| 20260509115613 | 67 | 6 | 4.3 | 6.1 | 0.00 | 0.00 | 0.00 | 51 | 1015.5 |
| 20260509114503 | 67 | 69 | 4.3 | 7.0 | 0.00 | 0.00 | 0.00 | 53 | 1015.4 |
| 20260509113603 | 67 | 40 | 4.3 | 7.0 | 0.00 | 0.00 | 0.00 | 53 | 1015.6 |
| 20260509112703 | 67 | 18 | 4.3 | 6.1 | 0.00 | 0.00 | 0.00 | 54 | 1015.6 |
| 20260509111803 | 66 | 78 | 4.3 | 5.2 | 0.00 | 0.00 | 0.00 | 55 | 1015.6 |
| 20260509110903 | 66 | 33 | 4.3 | 5.2 | 0.00 | 0.00 | 0.00 | 56 | 1015.8 |
| 20260509110003 | 65 | 48 | 3.5 | 5.2 | 0.00 | 0.00 | 0.00 | 58 | 1015.7 |
| 20260509105403 | 65 | 72 | 3.5 | 5.2 | 0.00 | 0.00 | 0.00 | 59 | 1015.9 |
| 20260509104503 | 64 | 6 | 3.5 | 5.2 | 0.00 | 0.00 | 0.00 | 57 | 1016.1 |
| 20260509103603 | 64 | 66 | 3.5 | 4.3 | 0.00 | 0.00 | 0.00 | 58 | 1016.0 |
| 20260509102703 | 64 | 13 | 4.3 | 7.0 | 0.00 | 0.00 | 0.00 | 58 | 1016.1 |
| 20260509101803 | 64 | 338 | 3.5 | 5.2 | 0.00 | 0.00 | 0.00 | 59 | 1016.2 |
| 20260509100903 | 63 | 12 | 3.5 | 4.3 | 0.00 | 0.00 | 0.00 | 62 | 1016.3 |
| 20260509100004 | 63 | 354 | 3.5 | 4.3 | 0.00 | 0.00 | 0.00 | 62 | 1016.0 |
| 20260509095403 | 62 | 9 | 3.5 | 6.1 | 0.00 | 0.00 | 0.00 | 62 | 1016.4 |
| 20260509094714 | 62 | 355 | 3.5 | 6.1 | 0.00 | 0.00 | 0.00 | 62 | 1016.1 |
| 20260509093603 | 62 | 68 | 3.5 | 4.3 | 0.00 | 0.00 | 0.00 | 62 | 1016.3 |
| 20260509092703 | 62 | 101 | 3.5 | 5.2 | 0.00 | 0.00 | 0.00 | 63 | 1016.2 |
| 20260509091803 | 61 | 1 | 4.3 | 4.3 | 0.00 | 0.00 | 0.00 | 63 | 1016.0 |
| 20260509090903 | 60 | 65 | 3.5 | 4.3 | 0.00 | 0.00 | 0.00 | 64 | 1016.3 |
| 20260509090004 | 59 | 356 | 3.5 | 4.3 | 0.00 | 0.00 | 0.00 | 64 | 1016.2 |
| 20260509085403 | 59 | 345 | 2.6 | 4.3 | 0.00 | 0.00 | 0.00 | 65 | 1016.2 |
| 20260509084714 | 58 | 46 | 2.6 | 4.3 | 0.00 | 0.00 | 0.00 | 66 | 1016.2 |
| 20260509083603 | 58 | 24 | 3.5 | 4.3 | 0.00 | 0.00 | 0.00 | 66 | 1016.3 |
| 20260509082703 | 57 | 52 | 3.5 | 6.1 | 0.00 | 0.00 | 0.00 | 67 | 1016.2 |
| 20260509081803 | 56 | 17 | 3.5 | 5.2 | 0.00 | 0.00 | 0.00 | 67 | 1016.4 |
| 20260509080903 | 56 | 348 | 3.5 | 5.2 | 0.00 | 0.00 | 0.00 | 66 | 1016.3 |
| 20260509080212 | 56 | 49 | 2.6 | 3.5 | 0.00 | 0.00 | 0.00 | 67 | 1016.3 |
| 20260509075403 | 55 | 61 | 2.6 | 4.3 | 0.00 | 0.00 | 0.00 | 68 | 1016.4 |
| 20260509074503 | 55 | 51 | 2.6 | 3.5 | 0.00 | 0.00 | 0.00 | 67 | 1016.0 |
| 20260509073603 | 55 | 51 | 2.6 | 4.3 | 0.00 | 0.00 | 0.00 | 68 | 1016.4 |
| 20260509072703 | 54 | 54 | 2.6 | 3.5 | 0.00 | 0.00 | 0.00 | 68 | 1016.3 |
| 20260509071803 | 54 | 66 | 2.6 | 3.5 | 0.00 | 0.00 | 0.00 | 71 | 1016.4 |
| 20260509070903 | 54 | 68 | 2.6 | 3.5 | 0.00 | 0.00 | 0.00 | 72 | 1016.2 |
| 20260509070003 | 54 | 73 | 3.5 | 5.2 | 0.00 | 0.00 | 0.00 | 71 | 1016.1 |
| 20260509065403 | 54 | 65 | 3.5 | 4.3 | 0.00 | 0.00 | 0.00 | 71 | 1015.9 |
| 20260509064503 | 54 | 51 | 2.6 | 3.5 | 0.00 | 0.00 | 0.00 | 72 | 1016.3 |
| 20260509063812 | 54 | 50 | 2.6 | 3.5 | 0.00 | 0.00 | 0.00 | 72 | 1016.2 |
| 20260509062703 | 53 | 56 | 2.6 | 3.5 | 0.00 | 0.00 | 0.00 | 74 | 1016.0 |
| 20260509061803 | 53 | 54 | 1.7 | 2.6 | 0.00 | 0.00 | 0.00 | 79 | 1016.0 |
| 20260509060926 | 51 | 56 | 1.7 | 1.7 | 0.00 | 0.00 | 0.00 | 83 | 1015.9 |
| 20260509060004 | 49 | 56 | 1.7 | 2.6 | 0.00 | 0.00 | 0.00 | 85 | 1015.9 |
| 20260509055404 | 49 | 49 | 1.7 | 2.6 | 0.00 | 0.00 | 0.00 | 87 | 1015.7 |
| 20260509054712 | 48 | 45 | 1.7 | 2.6 | 0.00 | 0.00 | 0.00 | 88 | 1015.8 |
| 20260509053603 | 47 | 45 | 1.7 | 3.5 | 0.00 | 0.00 | 0.00 | 89 | 1015.7 |
| 20260509052703 | 46 | 45 | 0.9 | 1.7 | 0.00 | 0.00 | 0.00 | 89 | 1015.5 |
| 20260509051810 | 46 | 45 | 0.0 | 0.9 | 0.00 | 0.00 | 0.00 | 88 | 1015.5 |
| 20260509050903 | 45 | 0 | 0.0 | 0.0 | 0.00 | 0.00 | 0.00 | 92 | 1015.3 |
| 20260509050003 | 45 | 45 | 0.0 | 0.9 | 0.00 | 0.00 | 0.00 | 92 | 1015.5 |
| 20260509045613 | 45 | 45 | 0.9 | 1.7 | 0.00 | 0.00 | 0.00 | 92 | 1015.3 |
| 20260509044503 | 45 | 45 | 0.9 | 1.7 | 0.00 | 0.00 | 0.00 | 91 | 1015.4 |
| 20260509043814 | 45 | 45 | 0.9 | 1.7 | 0.00 | 0.00 | 0.00 | 91 | 1015.6 |
| 20260509042703 | 45 | 45 | 0.0 | 0.9 | 0.00 | 0.00 | 0.00 | 91 | 1015.5 |
| 20260509041803 | 45 | 0 | 0.0 | 0.0 | 0.00 | 0.00 | 0.00 | 90 | 1015.4 |
| 20260509040903 | 45 | 45 | 0.0 | 0.9 | 0.00 | 0.00 | 0.00 | 90 | 1015.6 |
| 20260509040003 | 46 | 45 | 0.0 | 0.9 | 0.00 | 0.00 | 0.00 | 85 | 1015.5 |
| 20260509035403 | 46 | 45 | 0.0 | 0.9 | 0.00 | 0.00 | 0.00 | 84 | 1015.6 |
| 20260509034714 | 46 | 0 | 0.0 | 0.0 | 0.00 | 0.00 | 0.00 | 84 | 1015.4 |
| 20260509033603 | 46 | 0 | 0.0 | 0.0 | 0.00 | 0.00 | 0.00 | 84 | 1015.4 |
| 20260509032703 | 46 | 45 | 0.0 | 0.9 | 0.00 | 0.00 | 0.00 | 83 | 1015.7 |
| 20260509031803 | 46 | 45 | 0.0 | 0.9 | 0.00 | 0.00 | 0.00 | 83 | 1015.7 |
| 20260509030903 | 47 | 45 | 0.0 | 0.9 | 0.00 | 0.00 | 0.00 | 83 | 1015.5 |
| 20260509030004 | 46 | 0 | 0.0 | 0.0 | 0.00 | 0.00 | 0.00 | 82 | 1015.8 |
| 20260509025403 | 47 | 45 | 0.0 | 0.9 | 0.00 | 0.00 | 0.00 | 82 | 1015.6 |
| 20260509024503 | 47 | 45 | 0.9 | 1.7 | 0.00 | 0.00 | 0.00 | 82 | 1015.5 |
| 20260509023603 | 47 | 45 | 0.0 | 1.7 | 0.00 | 0.00 | 0.00 | 82 | 1015.6 |
| 20260509022703 | 47 | 0 | 0.0 | 0.0 | 0.00 | 0.00 | 0.00 | 82 | 1015.4 |
| 20260509021803 | 48 | 45 | 0.0 | 0.9 | 0.00 | 0.00 | 0.00 | 82 | 1015.8 |
| 20260509020903 | 48 | 45 | 0.0 | 0.9 | 0.00 | 0.00 | 0.00 | 83 | 1015.8 |
| 20260509020003 | 48 | 45 | 0.9 | 1.7 | 0.00 | 0.00 | 0.00 | 83 | 1015.8 |
| 20260509015403 | 48 | 45 | 0.0 | 0.9 | 0.00 | 0.00 | 0.00 | 83 | 1015.9 |
| 20260509014503 | 49 | 45 | 0.9 | 1.7 | 0.00 | 0.00 | 0.00 | 83 | 1015.8 |
| 20260509013603 | 49 | 45 | 1.7 | 1.7 | 0.00 | 0.00 | 0.00 | 82 | 1016.0 |
| 20260509012703 | 48 | 45 | 0.9 | 1.7 | 0.00 | 0.00 | 0.00 | 82 | 1015.9 |
| 20260509012013 | 48 | 45 | 0.0 | 1.7 | 0.00 | 0.00 | 0.00 | 81 | 1015.9 |
| 20260509010903 | 49 | 45 | 0.0 | 1.7 | 0.00 | 0.00 | 0.00 | 81 | 1015.6 |
| 20260509010003 | 49 | 45 | 0.0 | 0.9 | 0.00 | 0.00 | 0.00 | 81 | 1015.8 |
| 20260509005403 | 49 | 45 | 0.0 | 0.9 | 0.00 | 0.00 | 0.00 | 81 | 1015.9 |
| 20260509004503 | 49 | 0 | 0.0 | 0.0 | 0.00 | 0.00 | 0.00 | 81 | 1016.0 |
| 20260509003603 | 49 | 0 | 0.0 | 0.0 | 0.00 | 0.00 | 0.00 | 81 | 1015.9 |
| 20260509002704 | 49 | 45 | 0.0 | 1.7 | 0.00 | 0.00 | 0.00 | 81 | 1015.8 |
| 20260509002013 | 49 | 0 | 0.0 | 0.0 | 0.00 | 0.00 | 0.00 | 81 | 1015.8 |
| 20260509000903 | 49 | 0 | 0.0 | 0.0 | 0.00 | 0.00 | 0.00 | 81 | 1016.1 |
| 20260509000004 | 49 | 0 | 0.0 | 0.0 | 0.00 | 0.00 | 0.00 | 80 | 1016.1 |
| 20260508235613 | 49 | 45 | 0.0 | 0.9 | 0.00 | 0.00 | 0.00 | 80 | 1016.0 |
| 20260508234503 | 49 | 0 | 0.0 | 0.0 | 0.00 | 0.00 | 0.00 | 80 | 1016.1 |
| 20260508233814 | 49 | 0 | 0.0 | 0.0 | 0.00 | 0.00 | 0.00 | 80 | 1015.8 |
| 20260508232703 | 49 | 0 | 0.0 | 0.0 | 0.00 | 0.00 | 0.00 | 80 | 1015.9 |
| 20260508231803 | 49 | 0 | 0.0 | 0.0 | 0.00 | 0.00 | 0.00 | 79 | 1016.1 |
| 20260508230903 | 49 | 0 | 0.0 | 0.0 | 0.00 | 0.00 | 0.00 | 79 | 1016.0 |
| 20260508230004 | 50 | 45 | 0.0 | 0.9 | 0.00 | 0.00 | 0.00 | 79 | 1015.8 |
| 20260508225613 | 50 | 45 | 0.0 | 0.9 | 0.00 | 0.00 | 0.00 | 79 | 1016.0 |
| 20260508224503 | 50 | 45 | 0.0 | 0.9 | 0.00 | 0.00 | 0.00 | 78 | 1015.8 |
| 20260508223603 | 50 | 45 | 0.0 | 0.9 | 0.00 | 0.00 | 0.00 | 79 | 1015.9 |
| 20260508222703 | 51 | 45 | 0.0 | 1.7 | 0.00 | 0.00 | 0.00 | 78 | 1015.9 |
| 20260508221803 | 51 | 45 | 0.0 | 0.9 | 0.00 | 0.00 | 0.00 | 77 | 1016.0 |
| 20260508220903 | 51 | 45 | 0.9 | 1.7 | 0.00 | 0.00 | 0.00 | 76 | 1015.9 |
| 20260508220003 | 52 | 45 | 0.0 | 0.9 | 0.00 | 0.00 | 0.00 | 75 | 1016.0 |
| 20260508215403 | 52 | 45 | 0.0 | 0.9 | 0.00 | 0.00 | 0.00 | 75 | 1016.1 |
| 20260508214503 | 52 | 0 | 0.0 | 0.0 | 0.00 | 0.00 | 0.00 | 74 | 1015.7 |
| 20260508213614 | 52 | 45 | 0.0 | 0.9 | 0.00 | 0.00 | 0.00 | 73 | 1015.8 |
| 20260508212703 | 52 | 0 | 0.0 | 0.0 | 0.00 | 0.00 | 0.00 | 73 | 1015.9 |
| 20260508211803 | 53 | 45 | 0.0 | 0.9 | 0.00 | 0.00 | 0.00 | 72 | 1015.9 |
| 20260508210903 | 53 | 45 | 0.0 | 0.9 | 0.00 | 0.00 | 0.00 | 72 | 1015.9 |
| 20260508210003 | 53 | 0 | 0.0 | 0.0 | 0.00 | 0.00 | 0.00 | 71 | 1015.8 |
| 20260508205403 | 53 | 0 | 0.0 | 0.0 | 0.00 | 0.00 | 0.00 | 71 | 1015.8 |
| 20260508204503 | 53 | 0 | 0.0 | 0.0 | 0.00 | 0.00 | 0.00 | 70 | 1015.8 |
| 20260508203812 | 54 | 45 | 0.0 | 1.7 | 0.00 | 0.00 | 0.00 | 70 | 1015.7 |
| 20260508202703 | 54 | 63 | 0.0 | 1.7 | 0.00 | 0.00 | 0.00 | 68 | 1015.4 |
| 20260508201803 | 55 | 0 | 0.0 | 0.0 | 0.00 | 0.00 | 0.00 | 63 | 1015.4 |
| 20260508200903 | 55 | 60 | 0.0 | 0.9 | 0.00 | 0.00 | 0.00 | 62 | 1015.6 |
| 20260508200003 | 56 | 97 | 0.0 | 0.9 | 0.00 | 0.00 | 0.00 | 61 | 1015.5 |
| 20260508195403 | 56 | 160 | 0.9 | 1.7 | 0.00 | 0.00 | 0.00 | 61 | 1015.3 |
| 20260508194503 | 56 | 303 | 0.0 | 0.9 | 0.00 | 0.00 | 0.00 | 60 | 1015.3 |
| 20260508193615 | 57 | 315 | 0.0 | 0.9 | 0.00 | 0.00 | 0.00 | 60 | 1015.0 |
| 20260508192913 | 58 | 281 | 0.9 | 1.7 | 0.00 | 0.00 | 0.00 | 59 | 1015.0 |
| 20260508191803 | 58 | 283 | 0.9 | 1.7 | 0.00 | 0.00 | 0.00 | 59 | 1014.9 |
| 20260508190903 | 59 | 322 | 0.0 | 1.7 | 0.00 | 0.00 | 0.00 | 58 | 1014.7 |
| 20260508190003 | 60 | 189 | 1.7 | 3.5 | 0.00 | 0.00 | 0.00 | 56 | 1014.7 |
| 20260508185403 | 60 | 173 | 1.7 | 3.5 | 0.00 | 0.00 | 0.00 | 55 | 1014.6 |
| 20260508184504 | 61 | 203 | 1.7 | 3.5 | 0.00 | 0.00 | 0.00 | 57 | 1014.7 |
| 20260508183603 | 61 | 162 | 2.6 | 7.0 | 0.00 | 0.00 | 0.00 | 58 | 1014.4 |
| 20260508182913 | 62 | 182 | 3.5 | 7.0 | 0.00 | 0.00 | 0.00 | 57 | 1014.4 |
| 20260508182012 | 63 | 201 | 2.6 | 5.2 | 0.00 | 0.00 | 0.00 | 57 | 1014.6 |
| 20260508180903 | 63 | 146 | 2.6 | 5.2 | 0.00 | 0.00 | 0.00 | 57 | 1014.5 |
| 20260508180003 | 63 | 180 | 4.3 | 6.1 | 0.00 | 0.00 | 0.00 | 59 | 1014.5 |
| 20260508175403 | 63 | 199 | 3.5 | 5.2 | 0.00 | 0.00 | 0.00 | 59 | 1014.2 |
| 20260508174503 | 63 | 183 | 3.5 | 5.2 | 0.00 | 0.00 | 0.00 | 58 | 1014.4 |
| 20260508173603 | 64 | 154 | 3.5 | 7.0 | 0.00 | 0.00 | 0.00 | 54 | 1014.1 |
| 20260508172703 | 65 | 87 | 3.5 | 4.3 | 0.00 | 0.00 | 0.00 | 55 | 1014.0 |
| 20260508171803 | 64 | 204 | 3.5 | 4.3 | 0.00 | 0.00 | 0.00 | 55 | 1013.9 |
| 20260508170903 | 65 | 147 | 3.5 | 4.3 | 0.00 | 0.00 | 0.00 | 53 | 1014.2 |
| 20260508170003 | 65 | 213 | 4.3 | 7.0 | 0.00 | 0.00 | 0.00 | 53 | 1013.9 |
| 20260508165403 | 65 | 186 | 3.5 | 7.0 | 0.00 | 0.00 | 0.00 | 52 | 1014.2 |